210P/Christensen (2025)

Japanese version
Home page
Updated on January 31, 2026

---------------------------------------------------------------------

* Profile

* Pictures

* Orbital Elements

Epoch 2025 May 5.0 TT = JDT 2460800.5
T 2025 Nov. 22.72774 TT                                 Pike
q   0.5244793            (2000.0)            P               Q
n   0.17538815     Peri.  345.94420     +0.17418376     -0.96845609
a   3.1608403      Node    93.79789     +0.91983245     +0.09542204
e   0.8340697      Incl.   10.28737     +0.35152282     +0.23018998
P   5.62
From 538 observations 2008 Dec. 8-2025 Aug. 3, mean residual 0".7.
     Nongravitational parameters A1 = -0.05, A2 = +0.0044.

* Finding Charts

* Magnitudes Graph

        m1 = 14.0 + 5 log d + 15.0 log r  [ ,0]  (             - 2025 Nov. 22)
        m1 = 13.5 + 5 log d + 13.0 log r  [0, ]  (2025 Nov. 22 -             )

---------------------------------------------------------------------

The orbital elements are published on M.P.E.C. 2025-P113.
The charts are made with StellaNavigator Ver.10 (AstroArts).
The magnitudes graphs are made with Comet for Windows.

---------------------------------------------------------------------

Copyright(C) Seiichi Yoshida (comet@aerith.net). All rights reserved.